Wind_Speed
24 22 20 21 20 23 22 23 24 22 22 23 23 20 20 23 17 19 17 20 21 23 24 26 26 26 27 26 25 26 26 26 24 21 18 16 14 12 11 11 10 10 13
31 23 23 22 21 21 25 23 22 22 25 23 23 22 22 22 22 24 18 18 20 24 26 26 27 29 30 29 27 26 27 26 24 21 18 17 15 14 14 13 14 14 15
35 26 28 29 22 19 25 26 26 26 23 23 23 22 21 23 21 23 22 18 18 23 25 26 29 39 36 30 26 27 26 25 22 19 18 16 16 17 15 16 16 15 14
37 36 26 30 27 23 26 29 27 28 24 21 20 22 21 22 20 21 23 22 24 21 25 30 29 33 36 32 28 27 26 23 21 23 22 19 21 21 18 18 18 18 17
34 37 35 35 29 25 30 32 30 28 27 21 21 20 23 20 21 20 23 26 27 26 26 31 28 39 25 29 27 28 27 25 23 23 23 22 21 20 20 19 19 18 18
34 36 39 38 35 31 30 32 33 28 29 24 18 22 22 19 22 24 20 23 23 26 30 31 28 19 29 27 26 28 27 25 24 23 23 23 21 21 21 21 21 20 19
33 35 35 35 37 35 31 32 30 29 30 26 25 25 22 23 19 21 21 22 23 21 21 30 20 33 28 26 27 29 27 25 24 23 24 22 21 22 22 22 22 21 20
35 36 37 38 38 35 32 32 34 29 27 27 25 22 14 20 23 21 21 23 21 18 25 22 36 42 32 33 28 28 27 25 22 23 25 20 20 22 22 23 23 22 22
43 45 38 44 40 37 37 36 37 32 30 27 31 18 9 9 13 22 23 24 23 20 24 24 18 35 28 27 28 29 27 27 23 22 22 22 20 20 22 22 23 23 22
39 41 44 46 40 37 37 36 36 32 26 31 29 29 19 11 9 9 24 26 23 25 24 24 24 17 25 23 25 26 30 29 26 23 19 24 23 21 23 23 24 24 22
40 41 45 45 43 37 37 31 25 29 30 28 33 33 27 22 16 12 10 21 24 26 26 26 28 24 27 22 21 24 22 27 28 26 22 25 24 23 22 23 25 24 23
39 43 41 45 43 41 36 33 29 42 34 29 26 29 30 29 26 20 15 11 27 30 31 33 31 29 27 31 30 22 22 24 28 29 26 24 27 24 22 22 24 24 22
38 41 45 47 47 40 39 35 29 42 38 31 30 29 29 30 26 22 24 18 18 27 32 37 35 39 37 33 32 34 27 25 25 27 29 26 26 24 23 23 22 22 21
34 34 41 45 46 44 50 44 39 44 38 34 30 28 28 29 29 26 23 21 17 24 29 33 36 40 37 37 37 34 33 30 26 29 32 30 28 26 24 22 20 21 20
30 28 37 38 39 36 33 32 36 38 38 34 30 28 25 28 31 31 30 31 28 16 27 29 32 32 34 37 38 40 35 30 29 31 32 34 31 28 28 25 24 23 22
29 28 30 36 41 38 33 34 30 29 35 32 29 26 26 28 28 29 30 35 34 34 22 27 29 28 25 31 36 41 34 30 30 29 30 32 31 31 30 29 28 27 27
28 26 31 36 33 42 36 32 26 27 29 30 31 28 30 29 29 29 28 30 31 35 33 26 29 29 29 28 35 39 36 33 30 32 33 32 31 30 29 29 30 30 29
30 28 28 28 30 36 33 34 25 38 32 35 31 29 27 28 28 28 30 31 30 33 35 31 31 31 30 30 38 42 33 29 35 34 32 32 31 30 30 30 30 30 29
27 30 27 28 30 29 26 22 24 48 44 30 29 26 26 29 27 30 29 30 32 31 32 35 34 32 31 30 37 38 35 36 35 33 34 33 32 31 31 31 31 31 31
23 25 26 28 30 27 26 27 26 29 29 27 25 23 24 27 28 30 29 31 35 34 36 35 38 35 35 34 41 41 36 38 37 33 36 35 34 34 34 34 33 33 33
18 18 23 33 25 27 32 29 23 27 25 24 24 23 21 24 26 29 30 32 35 38 36 36 36 37 38 37 46 44 41 36 31 34 36 34 35 34 34 34 33 34 31
18 25 21 28 31 33 31 31 29 24 24 24 24 25 27 27 29 31 31 34 34 34 40 36 40 38 38 43 47 49 46 39 35 35 36 34 31 33 33 32 33 27 27
6 11 20 25 25 26 24 23 24 24 24 23 24 24 26 28 28 28 26 25 30 33 35 39 41 43 44 46 46 44 45 46 43 43 36 33 31 29 27 28 26 29 29
11 3 6 14 16 26 27 25 24 25 23 22 22 23 26 27 24 23 21 22 21 24 34 35 37 42 43 42 42 46 46 45 43 40 38 32 31 27 25 22 21 23 23
19 15 9 8 10 17 20 25 25 22 20 19 18 18 18 18 20 17 14 15 18 23 28 33 34 35 36 35 39 40 41 40 36 35 39 31 32 29 25 23 22 22 20
26 24 22 19 16 17 14 11 16 16 16 14 13 13 19 15 14 13 12 14 19 22 25 32 37 36 30 32 38 40 37 46 44 34 37 34 35 36 21 22 22 19 17
Wind_Direction
213 216 222 222 228 218 223 225 233 233 231 230 228 227 226 221 225 240 242 253 248 235 234 225 218 216 206 204 199 197 195 193 192 193 198 203 204 212 225 234 237 232 198
221 210 218 223 220 224 225 224 222 232 228 228 228 230 229 231 230 229 235 255 253 232 235 235 220 209 208 205 201 200 200 198 197 200 208 209 214 221 230 234 237 217 198
231 219 221 215 212 229 228 226 227 226 232 227 233 235 234 232 231 240 238 243 255 236 233 239 241 224 208 202 199 201 202 204 205 211 221 223 226 228 232 235 228 213 194
233 226 227 225 228 210 229 226 226 229 228 231 228 234 237 236 235 236 244 245 250 246 238 236 235 237 203 202 199 200 201 204 213 218 223 231 237 233 232 225 210 204 195
229 232 223 235 223 215 227 223 224 221 223 223 229 238 239 234 245 249 252 251 255 251 243 238 251 238 215 203 202 201 202 205 213 224 231 233 230 231 224 214 207 201 197
233 229 231 235 230 227 226 229 232 231 229 229 225 232 231 237 240 253 250 259 252 253 252 239 245 245 206 201 206 205 206 209 216 224 234 232 222 217 211 207 203 201 197
234 225 225 230 228 231 227 230 225 229 230 226 226 240 235 243 248 248 251 252 254 257 232 228 219 201 206 202 209 210 211 212 217 224 236 239 223 208 204 205 201 200 198
233 234 225 226 231 230 222 222 223 222 222 226 217 221 233 241 233 235 244 254 253 256 233 221 216 206 212 209 206 210 213 218 218 230 236 234 211 205 202 204 202 201 200
236 238 237 231 230 232 228 224 229 225 222 222 219 213 209 224 227 238 242 249 248 247 234 236 240 197 202 205 208 208 214 218 223 234 233 218 212 214 203 202 205 204 204
235 234 228 223 229 228 226 227 228 220 220 221 219 221 223 240 214 227 236 242 242 230 219 226 224 215 196 202 212 216 217 220 224 231 230 219 216 215 209 207 208 206 207
232 229 231 228 229 221 223 218 218 226 226 225 223 224 221 226 230 232 226 226 230 224 238 239 232 233 226 213 212 216 228 228 228 231 234 212 212 212 212 212 209 209 210
240 233 229 227 230 221 218 210 240 250 230 224 226 228 227 224 230 227 234 244 230 226 229 227 233 234 231 236 225 218 235 234 227 223 214 215 214 213 217 217 214 213 213
239 240 229 224 231 225 214 229 261 238 225 225 227 227 233 227 230 234 234 237 238 233 236 233 232 238 240 235 240 223 220 235 227 218 213 213 210 212 220 227 217 214 216
246 246 230 226 236 228 221 237 219 216 223 228 228 229 234 232 231 232 228 235 231 242 241 240 237 240 243 241 232 221 222 226 229 221 214 214 214 214 220 223 217 216 220
238 249 226 230 220 213 221 218 217 224 231 227 226 230 241 243 243 246 248 233 233 227 234 236 237 240 239 240 236 226 217 223 224 218 218 213 218 217 221 223 220 219 221
232 238 228 232 220 222 219 212 214 226 222 222 226 229 235 238 241 244 245 245 244 237 228 243 244 249 251 240 234 223 213 214 214 217 217 216 219 221 223 225 226 225 223
229 222 214 212 234 223 211 210 234 244 234 224 234 237 239 241 241 244 245 245 246 242 242 237 249 252 250 247 230 219 216 215 214 215 217 218 219 220 220 223 226 229 229
231 217 225 232 214 215 208 221 243 256 248 240 241 241 236 239 240 240 241 245 248 246 248 234 227 243 243 245 232 216 212 218 222 217 213 215 216 217 219 223 226 231 233
235 223 230 218 210 209 215 218 240 214 225 231 231 238 238 236 240 244 244 247 249 248 230 229 249 246 248 240 226 213 214 215 215 213 212 216 218 221 223 227 231 235 238
228 234 223 210 206 211 210 204 206 214 206 226 234 240 238 243 245 250 253 254 250 245 250 248 243 246 243 238 210 201 208 213 205 209 214 216 220 222 226 228 232 236 240
200 193 208 211 224 214 218 224 232 221 224 223 225 230 236 239 241 246 249 256 251 247 249 245 241 231 210 201 195 202 207 202 196 211 216 216 219 220 225 228 231 231 235
197 215 220 208 210 218 213 224 222 210 216 227 239 241 241 250 249 251 255 252 255 254 240 244 227 214 202 204 203 207 211 205 202 213 214 209 209 216 219 228 227 230 241
258 195 189 199 201 212 203 202 207 216 221 225 228 236 243 251 252 253 252 252 245 249 248 235 233 222 209 205 208 208 210 206 215 209 201 194 203 203 204 216 222 235 237
39 301 168 168 169 184 199 206 209 213 212 220 231 236 245 246 252 252 251 247 241 252 238 226 214 218 211 208 218 215 212 220 216 205 196 191 198 199 205 213 219 226 228
63 55 61 66 88 140 171 190 194 205 208 214 222 230 238 241 248 249 258 242 241 239 236 213 210 212 209 208 214 218 214 215 201 198 201 203 190 197 198 204 210 216 213
63 70 66 60 55 78 90 134 157 182 193 194 207 215 225 228 235 240 241 236 229 222 223 219 215 211 212 212 214 217 225 218 221 199 204 206 200 197 177 201 210 210 210
Height
1489 1493 1496 1498 1496 1499 1500 1504 1505 1504 1508 1510 1511 1512 1512 1514 1517 1517 1518 1518 1519 1521 1524 1526 1526 1533 1535 1539 1542 1544 1547 1548 1552 1555 1558 1560 1562 1564 1566 1568 1569 1570 1571
1481 1487 1490 1493 1495 1495 1496 1500 1502 1503 1503 1504 1506 1508 1508 1510 1512 1513 1515 1514 1516 1519 1522 1523 1525 1527 1531 1536 1539 1543 1545 1547 1550 1552 1556 1558 1560 1562 1564 1566 1567 1568 1570
1475 1480 1482 1484 1489 1492 1493 1495 1496 1499 1501 1499 1501 1504 1506 1506 1509 1509 1510 1512 1513 1515 1518 1520 1521 1521 1529 1533 1536 1540 1543 1546 1548 1550 1554 1556 1557 1559 1561 1563 1565 1567 1570
1468 1472 1477 1476 1480 1486 1486 1489 1492 1493 1496 1497 1496 1499 1501 1502 1504 1506 1506 1507 1509 1510 1513 1516 1518 1512 1524 1531 1533 1537 1541 1543 1545 1547 1550 1553 1554 1556 1558 1560 1562 1565 1568
1461 1463 1468 1468 1474 1478 1480 1483 1486 1488 1490 1492 1493 1494 1497 1499 1500 1501 1501 1503 1504 1505 1507 1511 1514 1502 1512 1527 1528 1534 1537 1539 1542 1544 1547 1549 1550 1551 1554 1557 1560 1563 1566
1452 1455 1458 1460 1464 1470 1472 1475 1478 1481 1483 1487 1489 1489 1492 1495 1494 1495 1497 1498 1499 1501 1502 1504 1507 1505 1512 1521 1526 1531 1533 1535 1538 1541 1544 1545 1547 1548 1550 1554 1557 1561 1565
1445 1448 1451 1454 1455 1460 1465 1469 1472 1476 1478 1480 1484 1485 1487 1489 1490 1491 1493 1493 1495 1496 1496 1498 1500 1506 1511 1517 1522 1527 1529 1531 1535 1538 1540 1541 1543 1545 1548 1551 1555 1559 1562
1439 1441 1444 1448 1449 1453 1458 1463 1464 1469 1474 1476 1478 1480 1482 1485 1485 1487 1488 1488 1490 1492 1494 1498 1490 1506 1509 1513 1515 1521 1524 1528 1531 1534 1536 1538 1539 1542 1545 1548 1552 1556 1560
1432 1432 1432 1445 1438 1444 1450 1454 1458 1461 1465 1470 1473 1476 1477 1479 1479 1482 1483 1483 1486 1488 1489 1492 1491 1501 1504 1510 1513 1516 1520 1525 1527 1530 1532 1535 1537 1540 1542 1546 1550 1554 1557
1424 1425 1425 1434 1431 1435 1442 1447 1450 1456 1460 1461 1467 1469 1471 1475 1476 1477 1478 1479 1481 1484 1487 1491 1491 1494 1498 1505 1509 1512 1517 1520 1523 1526 1528 1531 1533 1537 1539 1543 1547 1550 1554
1413 1417 1420 1422 1422 1430 1435 1440 1448 1454 1455 1456 1457 1462 1465 1468 1472 1473 1473 1475 1477 1479 1482 1485 1489 1492 1497 1501 1504 1509 1512 1516 1518 1522 1524 1527 1531 1534 1537 1540 1543 1547 1551
1402 1408 1413 1415 1416 1420 1427 1431 1435 1454 1449 1447 1450 1455 1457 1460 1464 1468 1470 1471 1472 1473 1477 1480 1484 1487 1491 1496 1499 1503 1507 1510 1513 1517 1520 1523 1527 1531 1535 1537 1540 1544 1547
1393 1397 1404 1406 1409 1415 1419 1423 1421 1433 1444 1442 1441 1446 1450 1454 1459 1462 1465 1468 1468 1469 1471 1475 1479 1482 1486 1491 1494 1497 1501 1504 1508 1512 1516 1519 1523 1528 1531 1535 1537 1541 1545
1385 1392 1396 1399 1404 1409 1410 1418 1418 1428 1434 1437 1436 1439 1442 1447 1452 1456 1459 1464 1464 1464 1465 1468 1472 1475 1479 1484 1488 1492 1496 1498 1503 1507 1511 1515 1520 1523 1528 1531 1534 1538 1541
1379 1384 1389 1394 1397 1401 1405 1409 1414 1423 1428 1432 1431 1434 1434 1440 1444 1448 1453 1456 1459 1460 1460 1461 1466 1469 1472 1477 1481 1485 1489 1492 1497 1502 1506 1509 1514 1518 1523 1527 1530 1533 1537
1374 1378 1383 1385 1389 1395 1397 1402 1410 1417 1422 1424 1426 1427 1429 1433 1437 1442 1446 1450 1452 1455 1452 1458 1460 1463 1467 1470 1475 1478 1483 1487 1492 1497 1501 1505 1509 1514 1518 1522 1525 1528 1531
1369 1372 1374 1378 1383 1386 1391 1398 1404 1407 1416 1418 1421 1421 1425 1428 1432 1436 1439 1443 1446 1448 1449 1451 1455 1458 1460 1463 1467 1472 1478 1481 1485 1490 1495 1500 1504 1508 1511 1515 1519 1522 1525
1363 1367 1368 1373 1378 1383 1389 1394 1399 1405 1413 1414 1416 1418 1420 1424 1426 1430 1433 1437 1439 1441 1444 1445 1448 1451 1454 1457 1460 1465 1472 1478 1478 1484 1490 1495 1499 1502 1506 1510 1514 1517 1520
1360 1363 1366 1370 1374 1378 1381 1384 1384 1399 1407 1410 1412 1413 1415 1418 1421 1425 1427 1430 1433 1435 1437 1437 1440 1444 1447 1452 1455 1459 1465 1469 1473 1479 1485 1489 1493 1497 1500 1504 1508 1511 1514
1356 1360 1365 1368 1371 1375 1379 1382 1386 1394 1398 1402 1406 1408 1411 1413 1416 1419 1421 1423 1425 1428 1430 1430 1433 1435 1438 1442 1446 1451 1458 1463 1464 1471 1478 1482 1486 1490 1493 1497 1500 1504 1507
1351 1353 1359 1363 1367 1370 1372 1374 1377 1385 1390 1396 1399 1402 1404 1407 1410 1413 1415 1417 1419 1420 1421 1423 1426 1428 1429 1433 1438 1444 1450 1455 1458 1465 1471 1475 1479 1482 1486 1490 1492 1496 1499
1346 1352 1356 1359 1363 1366 1366 1368 1372 1379 1384 1388 1392 1395 1399 1403 1405 1407 1408 1409 1411 1411 1410 1412 1415 1418 1421 1426 1431 1436 1442 1448 1454 1460 1464 1468 1473 1476 1479 1482 1486 1488 1492
1351 1349 1353 1356 1358 1362 1366 1367 1371 1376 1380 1384 1388 1392 1396 1398 1400 1401 1401 1401 1400 1401 1403 1404 1406 1409 1413 1417 1424 1430 1435 1442 1446 1453 1459 1462 1466 1469 1471 1474 1478 1480 1484
1357 1358 1352 1353 1355 1357 1363 1367 1370 1374 1377 1381 1384 1388 1392 1393 1394 1395 1394 1392 1393 1393 1396 1399 1401 1404 1408 1411 1417 1423 1430 1436 1441 1444 1450 1453 1458 1463 1465 1469 1471 1473 1477
1363 1363 1363 1359 1362 1351 1359 1363 1365 1370 1374 1377 1380 1384 1386 1388 1389 1390 1389 1387 1388 1390 1392 1395 1398 1403 1405 1408 1415 1420 1425 1430 1435 1439 1443 1447 1450 1456 1461 1465 1467 1468 1472
1373 1369 1367 1367 1365 1353 1360 1364 1359 1367 1370 1374 1377 1380 1382 1384 1384 1385 1386 1386 1385 1388 1389 1390 1394 1397 1403 1406 1410 1414 1418 1421 1426 1433 1437 1442 1443 1448 1457 1461 1461 1464 1468